User: anonymous   Login
Location: Young's Pond
(41.2695°N, 72.7766°W)
Time: 21:52:51
(UTC-05:00)
Language:

Spot 4 - Orbit

View from above orbital plane
View from above orbital plane
View from above satellite
View from above satellite

Ground track
Ground track

The orbit data is extracted from the following two-line orbital elements,

1 25260U 98017A   16340.89433247  .00000077  00000-0  29531-4 0  9992
2 25260  98.3670  57.8104 0013455 142.8650 217.3477 14.53448503973770
Epoch (UTC): 05 December 2016 21:27:50
Eccentricity: 0.0013455
inclination: 98.3670°
perigee height: 705 km
apogee height: 724 km
right ascension of ascending node: 57.8104°
argument of perigee: 142.8650°
revolutions per day: 14.53448503
mean anomaly at epoch: 217.3477°
orbit number at epoch: 97377

The dashed part of the orbit path shows where the satellite is in the earth's shadow,  

DLR